TimeEDT,TemperatureF,Dew PointF,Humidity,Sea Level PressureIn,VisibilityMPH,Wind Direction,Wind SpeedMPH,Gust SpeedMPH,PrecipitationIn,Events,Conditions,WindDirDegrees,DateUTC
12:53 AM,44.1,21.9,42,29.83,10.0,NE,6.9,-,N/A,,Clear,50,2013-03-24 04:53:00
1:53 AM,43.0,21.9,43,29.82,10.0,ENE,10.4,-,N/A,,Clear,60,2013-03-24 05:53:00
2:53 AM,42.1,23.0,47,29.81,10.0,ENE,11.5,-,N/A,,Overcast,70,2013-03-24 06:53:00
3:53 AM,42.1,21.9,45,29.78,10.0,NE,10.4,-,N/A,,Overcast,40,2013-03-24 07:53:00
4:53 AM,42.1,21.9,45,29.74,10.0,NE,10.4,-,N/A,,Overcast,50,2013-03-24 08:53:00
5:53 AM,39.0,27.0,62,29.70,10.0,ENE,10.4,-,0.01,Rain,Light Rain,60,2013-03-24 09:53:00
6:53 AM,37.9,28.9,70,29.68,6.0,ENE,10.4,-,0.03,Rain,Light Rain,60,2013-03-24 10:53:00
7:53 AM,36.0,30.9,82,29.68,4.0,NE,6.9,-,0.08,Rain,Rain,50,2013-03-24 11:53:00
8:53 AM,35.1,32.0,89,29.67,4.0,NE,9.2,-,0.11,Rain,Light Rain,50,2013-03-24 12:53:00
9:01 AM,35.6,32.0,87,29.66,4.0,NE,6.9,-,0.01,Rain,Rain,40,2013-03-24 13:01:00
9:53 AM,35.1,32.0,89,29.65,5.0,NE,10.4,-,0.05,Rain,Light Rain,40,2013-03-24 13:53:00
10:19 AM,35.6,32.0,87,29.65,1.8,Variable,6.9,-,0.02,Rain,Rain,0,2013-03-24 14:19:00
10:34 AM,35.6,33.8,93,29.63,2.0,NE,9.2,-,0.04,Rain,Light Rain,40,2013-03-24 14:34:00
10:41 AM,35.6,33.8,93,29.61,1.2,ENE,16.1,20.7,0.05,Rain,Rain,70,2013-03-24 14:41:00
10:51 AM,33.8,33.8,100,29.60,1.5,ENE,12.7,-,0.06,Rain,Light Rain,60,2013-03-24 14:51:00
10:53 AM,34.0,33.1,96,29.61,1.8,NE,12.7,-,0.06,Rain,Light Rain,50,2013-03-24 14:53:00
11:02 AM,33.8,33.8,100,29.59,2.5,ENE,15.0,-,0.02,Rain,Rain,60,2013-03-24 15:02:00
11:06 AM,33.8,33.8,100,29.59,3.0,ENE,10.4,-,0.02,Rain,Light Rain,60,2013-03-24 15:06:00
11:25 AM,35.6,33.8,93,29.60,4.0,ENE,8.1,-,0.04,Rain,Light Rain,60,2013-03-24 15:25:00
11:35 AM,35.6,33.8,93,29.60,6.0,ENE,6.9,-,0.04,,Overcast,60,2013-03-24 15:35:00
11:53 AM,36.0,33.1,89,29.60,7.0,ENE,10.4,-,0.04,,Overcast,60,2013-03-24 15:53:00
12:04 PM,35.6,33.8,93,29.60,6.0,NE,6.9,-,0.00,,Overcast,40,2013-03-24 16:04:00
12:34 PM,35.6,33.8,93,29.58,2.5,NE,6.9,-,0.01,Rain,Light Rain,50,2013-03-24 16:34:00
12:53 PM,36.0,34.0,93,29.59,2.5,ENE,6.9,-,0.02,Rain,Light Rain,60,2013-03-24 16:53:00
1:00 PM,35.6,35.6,100,29.57,3.0,NE,6.9,-,0.00,Rain,Light Rain,40,2013-03-24 17:00:00
1:07 PM,35.6,35.6,100,29.57,2.5,NE,4.6,-,0.00,Rain,Light Rain,40,2013-03-24 17:07:00
1:16 PM,35.6,35.6,100,29.53,3.0,ENE,12.7,18.4,0.01,Rain,Light Rain,60,2013-03-24 17:16:00
1:53 PM,36.0,35.1,97,29.51,5.0,ENE,10.4,-,0.01,,Overcast,70,2013-03-24 17:53:00
2:53 PM,37.9,36.0,93,29.44,8.0,ENE,12.7,-,N/A,,Overcast,70,2013-03-24 18:53:00
3:53 PM,37.9,36.0,93,29.46,7.0,ENE,10.4,-,N/A,,Overcast,60,2013-03-24 19:53:00
4:34 PM,37.4,35.6,93,29.41,1.8,NE,8.1,-,0.01,,Overcast,50,2013-03-24 20:34:00
4:50 PM,37.4,35.6,93,29.42,2.5,NNE,6.9,-,0.03,Rain,Light Rain,30,2013-03-24 20:50:00
4:53 PM,37.0,36.0,96,29.44,2.0,Calm,Calm,-,0.04,Rain,Rain,0,2013-03-24 20:53:00
5:01 PM,37.4,35.6,93,29.42,1.5,NE,4.6,-,0.04,Rain,Rain,40,2013-03-24 21:01:00
5:48 PM,37.4,37.4,100,29.37,3.0,Variable,5.8,-,0.20,Rain,Light Rain,0,2013-03-24 21:48:00
5:53 PM,37.0,37.0,100,29.39,4.0,ENE,5.8,-,0.20,,Overcast,60,2013-03-24 21:53:00
6:22 PM,37.4,37.4,100,29.42,2.5,Calm,Calm,-,0.01,Rain,Light Rain,0,2013-03-24 22:22:00
6:41 PM,37.4,37.4,100,29.43,2.0,Calm,Calm,-,0.04,Rain,Rain,0,2013-03-24 22:41:00
6:53 PM,37.9,37.0,97,29.44,2.0,Calm,Calm,-,0.05,Rain,Light Rain,0,2013-03-24 22:53:00
7:16 PM,37.4,37.4,100,29.40,2.5,ENE,5.8,-,0.03,Rain,Light Rain,70,2013-03-24 23:16:00
7:40 PM,37.4,37.4,100,29.42,4.0,SE,3.5,-,0.03,,Overcast,130,2013-03-24 23:40:00
7:53 PM,37.0,37.0,100,29.43,5.0,ESE,5.8,-,0.03,,Overcast,120,2013-03-24 23:53:00
8:02 PM,37.4,37.4,100,29.41,5.0,SE,3.5,-,N/A,,Overcast,130,2013-03-25 00:02:00
8:29 PM,37.4,37.4,100,29.42,6.0,SE,3.5,-,N/A,,Overcast,140,2013-03-25 00:29:00
8:36 PM,37.4,37.4,100,29.42,7.0,SSE,4.6,-,N/A,,Overcast,160,2013-03-25 00:36:00
8:53 PM,37.0,37.0,100,29.44,7.0,South,4.6,-,N/A,,Overcast,170,2013-03-25 00:53:00
9:24 PM,37.4,37.4,100,29.43,4.0,SSW,5.8,-,N/A,,Overcast,200,2013-03-25 01:24:00
9:31 PM,37.4,37.4,100,29.43,2.5,SSW,8.1,-,0.01,Rain,Light Rain,210,2013-03-25 01:31:00
9:36 PM,37.4,37.4,100,29.43,3.0,SSW,5.8,-,0.01,Rain,Light Rain,210,2013-03-25 01:36:00
9:44 PM,37.4,37.4,100,29.43,5.0,SSW,6.9,-,0.01,,Overcast,210,2013-03-25 01:44:00
9:53 PM,37.9,37.0,97,29.45,4.0,SSW,6.9,-,0.01,Rain,Light Rain,200,2013-03-25 01:53:00
10:03 PM,37.4,37.4,100,29.43,5.0,SSW,6.9,-,0.01,Rain,Light Rain,210,2013-03-25 02:03:00
10:11 PM,37.4,37.4,100,29.43,5.0,SW,6.9,-,0.01,Rain,Light Rain,220,2013-03-25 02:11:00
10:44 PM,39.2,37.4,93,29.44,9.0,SW,11.5,-,0.01,,Overcast,230,2013-03-25 02:44:00
10:47 PM,39.2,37.4,93,29.44,9.0,SW,10.4,-,0.01,,Overcast,230,2013-03-25 02:47:00
10:53 PM,39.0,37.9,96,29.45,7.0,WSW,9.2,-,0.01,Rain,Light Rain,240,2013-03-25 02:53:00
11:53 PM,37.9,36.0,93,29.47,10.0,WSW,13.8,24.2,0.01,,Overcast,250,2013-03-25 03:53:00